Location: Katzenstein
(51.7484°N, 10.2155°E)
Time: 10:36:41
(UTC+00:00)

Cosmos 2322 Rocket - Pass Details

Date: 17 February 2020
Orbit: 832 x 851 km, 71.0° (Epoch: 29 March)

Event Time Altitude Azimuth Distance (km) Brightness Sun altitude
Exits shadow 02:14:28 18° 8° (N) 1,969 4.4 -38.9°
Drops below altitude 10° 02:16:12 10° 20° (NNE) 2,492 5.1 -38.6°
Sets 02:18:56 0° 30° (NNE) 3,431 6.1 -38.3°
